Home   Weather   Guarulhos   Past weeks
Flag for Brazil

Past Weather in Guarulhos, São Paulo, Brazil — Yesterday and Last 2 Weeks

Now
55 °F

Sunny.


Feels Like: 53 °F
Forecast: 74 / 51 °F
Wind: 9 mph from Northeast

Location: Guarulhos Civ / Mil

Current Time: Jul 21, 2019 at 9:57:32 am

Latest Report: Jul 21, 2019 at 9:00 am


Visibility: 10 mi

Pressure: 30.27 "Hg (27.65 "Hg at 759m altitude)

Humidity: 94%

Dew Point: 54 °F

Location of GuarulhosLocation

Past Weather in Guarulhos — Graph

°F

Guarulhos Temperature Yesterday

Maximum temperature yesterday: 72 °F (at 2:00 pm)
Minimum temperature yesterday: 52 °F (at 6:42 am)
Average temperature yesterday: 59 °F

High & Low Weather Summary for the Past Weeks

 TemperatureHumidityPressure
High81 °F (Jul 14, 1:00 pm)100% (Jul 6, 11:16 pm)30.39 "Hg (Jul 6, 11:16 pm)
Low39 °F (Jul 7, 5:00 am)36% (Jul 12, 3:00 pm)30.01 "Hg (Jul 14, 3:00 pm)
Average56 °F83%30.23 "Hg
* Reported Jul 6 9:00 am — Jul 21 9:00 am, Guarulhos. Weather by CustomWeather, © 2019

Note: Actual official high and low records may vary slightly from our data, if they occured in-between our weather recording intervals... More about our weather records

Advertising

Guarulhos Weather History for the Previous 24 Hours

Scroll right to see more
 ConditionsComfort  
Time TempWeatherWind HumidityBarometerVisibility
9:00 am
Sun, Jul 21
55 °FSunny.9 mph94%30.27 "Hg10 mi
8:00 am52 °FClear.5 mph100%30.24 "Hg5 mi
7:00 am50 °FSunny.3 mph100%30.24 "Hg10 mi
6:00 am50 °FClear.3 mph100%30.21 "Hg10 mi
5:00 am52 °FClear.3 mph100%30.21 "Hg10 mi
4:00 am52 °FClear.7 mph100%30.18 "Hg10 mi
3:00 am54 °FClear.5 mph94%30.21 "Hg4 mi
2:00 am50 °FFog.2 mph100%30.21 "Hg3 mi
1:00 am52 °FFog.No wind100%30.24 "Hg3 mi
12:00 am54 °FClear.2 mph94%30.24 "Hg4 mi
11:00 pm
Sat, Jul 20
52 °FClear.No wind100%30.24 "Hg4 mi
10:00 pm55 °FClear.No wind94%30.24 "Hg6 mi
9:00 pm55 °FClear.No wind94%30.21 "Hg6 mi
8:00 pm55 °FClear.No wind94%30.21 "Hg6 mi
7:00 pm57 °FClear.No wind88%30.21 "Hg10 mi
6:00 pm66 °FClear.2 mph60%30.21 "Hg10 mi
5:00 pm70 °FSunny.7 mph50%30.21 "Hg10 mi
4:00 pm72 °FSunny.8 mph50%30.21 "Hg10 mi
3:00 pm72 °FSunny.8 mph50%30.21 "Hg10 mi
2:00 pm72 °FSunny.10 mph47%30.21 "Hg10 mi
1:00 pm70 °FSunny.8 mph50%30.24 "Hg10 mi
12:00 pm68 °FSunny.3 mph56%30.30 "Hg10 mi
11:00 am64 °FSunny.7 mph68%30.33 "Hg10 mi
10:00 am59 °FPassing clouds.8 mph88%30.33 "HgN/A
9:35 am57 °FScattered clouds.9 mph88%30.33 "HgN/A
9:00 am55 °FPartly sunny.10 mph94%30.33 "HgN/A
Weather by CustomWeather, © 2019

See weather overview